This is the latest recevied weather packets stored in our database for station/object TA3HRJ-12. If no packets are shown the sender has not sent any weather packets the latest 10 day(s).
| Time | Temp. | Humidity | Pressure | Rain* | Wind** | Luminosity | Snow |
|---|---|---|---|---|---|---|---|
| 1778034331 | 13.89° C | 45% | 1026.6 hPa | - | - | - | - |
| 1778033431 | 13.89° C | 45% | 1026.5 hPa | - | - | - | - |
| 1778032531 | 12.78° C | 46% | 1026.5 hPa | - | - | - | - |
| 1778031631 | 13.33° C | 45% | 1026.3 hPa | - | - | - | - |
| 1778030731 | 13.33° C | 46% | 1026.4 hPa | - | - | - | - |
| 1778029831 | 13.89° C | 44% | 1026.4 hPa | - | - | - | - |
| 1778027131 | 15° C | 42% | 1026.3 hPa | - | - | - | - |
| 1778026230 | 14.44° C | 43% | 1026.2 hPa | - | - | - | - |
| 1778025330 | 15° C | 42% | 1026.2 hPa | - | - | - | - |
| 1778024430 | 15° C | 43% | 1026.2 hPa | - | - | - | - |
| 1778023530 | 14.44° C | 43% | 1026.3 hPa | - | - | - | - |
| 1778022630 | 13.89° C | 44% | 1026.2 hPa | - | - | - | - |
| 1778021730 | 14.44° C | 43% | 1026.2 hPa | - | - | - | - |
| 1778020830 | 13.89° C | 43% | 1026.3 hPa | - | - | - | - |
| 1778019930 | 15° C | 41% | 1026.3 hPa | - | - | - | - |
| 1778019030 | 16.11° C | 39% | 1026.4 hPa | - | - | - | - |
| 1778018129 | 15.56° C | 40% | 1026.3 hPa | - | - | - | - |
| 1778017229 | 15.56° C | 40% | 1026.3 hPa | - | - | - | - |
| 1778016329 | 15.56° C | 40% | 1026.4 hPa | - | - | - | - |
| 1778015429 | 15.56° C | 40% | 1026.6 hPa | - | - | - | - |
| 1778014529 | 15.56° C | 41% | 1026.6 hPa | - | - | - | - |
| 1778013629 | 15.56° C | 41% | 1026.6 hPa | - | - | - | - |
| 1778012729 | 15.56° C | 42% | 1026.6 hPa | - | - | - | - |
| 1778011829 | 13.89° C | 45% | 1026.4 hPa | - | - | - | - |
| 1778010929 | 13.89° C | 44% | 1026.5 hPa | - | - | - | - |
* Rain since midnight (hover to see other rain measurements)
** Current wind speed in m/s (hover to see current wind gust speed)